Location: Brompton
(51.4000°N, 0.5333°E)
Time: 08:58:52
(UTC+00:00)

H-2A R/B - Pass Details

Date: 11 May 2021
Orbit: 573 x 598 km, 98.2° (Epoch: 12 June)

Event Time Altitude Azimuth Distance (km) Brightness Sun altitude
Rises 21:09:56 0° 23° (NNE) 2,849 7.4 -11.8°
Reaches altitude 10° 21:12:22 10° 35° (NE) 1,938 6.3 -12.0°
Maximum altitude 21:16:01 28° 95° (E) 1,115 4.5 -12.4°
Enters shadow 21:18:02 19° 139° (SE) 1,407 4.7 -12.6°
